| time (UTC) | temp C | wind direction | speed KPH | gust KPH | rain 1hr cm | rain 24hr cm | rain mn cm | humidity % | barometer mb |
| 20260902001005 | 17 | 351 | 0.0 | 0.0 | 0.00 | 0.00 | 0.00 | 94 | 1012.8 |
| 20260902000006 | 18 | 332 | 6.4 | 12.9 | 0.00 | 0.00 | 0.00 | 92 | 1012.6 |
| 20260901235006 | 18 | 39 | 9.7 | 14.5 | 0.00 | 0.00 | 0.00 | 92 | 1012.6 |
| 20260901234016 | 18 | 63 | 11.3 | 14.5 | 0.00 | 0.00 | 0.00 | 92 | 1012.6 |
| 20260901233005 | 18 | 67 | 4.8 | 9.7 | 0.00 | 0.00 | 0.00 | 91 | 1012.9 |
| 20260901232005 | 18 | 32 | 0.0 | 8.0 | 0.00 | 0.00 | 0.00 | 91 | 1013.0 |
| 20260901231006 | 18 | 52 | 0.0 | 0.0 | 0.00 | 0.00 | 0.00 | 89 | 1013.0 |
| 20260901230007 | 18 | 215 | 0.0 | 0.0 | 0.00 | 0.00 | 0.00 | 89 | 1012.9 |
| 20260901225011 | 18 | 225 | 0.0 | 0.0 | 0.00 | 0.00 | 0.00 | 89 | 1012.9 |
| 20260901224005 | 18 | 342 | 0.0 | 0.0 | 0.00 | 0.00 | 0.00 | 89 | 1012.9 |
| 20260901223006 | 18 | 353 | 0.0 | 0.0 | 0.00 | 0.00 | 0.00 | 88 | 1013.0 |
| 20260901222005 | 18 | 286 | 0.0 | 0.0 | 0.00 | 0.00 | 0.00 | 86 | 1012.9 |
| 20260901221005 | 18 | 32 | 0.0 | 0.0 | 0.00 | 0.00 | 0.00 | 86 | 1013.1 |
| 20260901220005 | 18 | 30 | 0.0 | 0.0 | 0.00 | 0.00 | 0.00 | 84 | 1013.1 |
| 20260901215008 | 19 | 24 | 0.0 | 0.0 | 0.00 | 0.00 | 0.00 | 83 | 1013.1 |
| 20260901214007 | 19 | 30 | 0.0 | 0.0 | 0.00 | 0.00 | 0.00 | 81 | 1013.1 |
| 20260901213005 | 19 | 48 | 0.0 | 0.0 | 0.00 | 0.00 | 0.00 | 81 | 1013.2 |
| 20260901212005 | 19 | 24 | 0.0 | 0.0 | 0.00 | 0.00 | 0.00 | 81 | 1013.0 |
| 20260901211005 | 19 | 356 | 0.0 | 3.2 | 0.00 | 0.00 | 0.00 | 81 | 1013.0 |
| 20260901210005 | 20 | 22 | 0.0 | 3.2 | 0.00 | 0.00 | 0.00 | 80 | 1012.8 |
| 20260901205005 | 20 | 31 | 8.0 | 11.3 | 0.00 | 0.00 | 0.00 | 78 | 1012.7 |
| 20260901204005 | 20 | 35 | 9.7 | 12.9 | 0.00 | 0.00 | 0.00 | 77 | 1012.7 |
| 20260901203005 | 20 | 26 | 6.4 | 14.5 | 0.00 | 0.00 | 0.00 | 77 | 1012.5 |
| 20260901202005 | 20 | 57 | 9.7 | 16.1 | 0.00 | 0.00 | 0.00 | 77 | 1012.3 |
| 20260901200004 | 21 | 22 | 8.0 | 12.9 | 0.00 | 0.00 | 0.00 | 73 | 1012.0 |
| 20260901195005 | 21 | 22 | 4.8 | 12.9 | 0.00 | 0.00 | 0.00 | 71 | 1012.0 |
| 20260901194006 | 21 | 40 | 6.4 | 14.5 | 0.00 | 0.00 | 0.00 | 68 | 1012.0 |
| 20260901192005 | 22 | 22 | 9.7 | 16.1 | 0.00 | 0.00 | 0.00 | 64 | 1011.9 |
| 20260901191005 | 22 | 17 | 14.5 | 20.9 | 0.00 | 0.00 | 0.00 | 64 | 1011.8 |
| 20260901190006 | 22 | 12 | 14.5 | 24.1 | 0.00 | 0.00 | 0.00 | 63 | 1011.7 |
| 20260901185006 | 23 | 28 | 17.7 | 22.5 | 0.00 | 0.00 | 0.00 | 61 | 1011.7 |
| 20260901184005 | 23 | 19 | 12.9 | 20.9 | 0.00 | 0.00 | 0.00 | 59 | 1011.7 |
| 20260901183006 | 24 | 45 | 14.5 | 20.9 | 0.00 | 0.00 | 0.00 | 57 | 1011.6 |
| 20260901181005 | 25 | 5 | 14.5 | 20.9 | 0.00 | 0.00 | 0.00 | 53 | 1011.3 |
| 20260901174007 | 26 | 22 | 12.9 | 24.1 | 0.00 | 0.00 | 0.00 | 51 | 1011.1 |
| 20260901173005 | 26 | 22 | 19.3 | 24.1 | 0.00 | 0.00 | 0.00 | 50 | 1011.0 |
| 20260901172005 | 27 | 33 | 12.9 | 22.5 | 0.00 | 0.00 | 0.00 | 50 | 1011.0 |
| 20260901171006 | 27 | 45 | 22.5 | 22.5 | 0.00 | 0.00 | 0.00 | 49 | 1010.9 |
| 20260901163005 | 30 | 287 | 14.5 | 20.9 | 0.00 | 0.00 | 0.00 | 43 | 1010.5 |
| 20260901162004 | 30 | 355 | 9.7 | 14.5 | 0.00 | 0.00 | 0.00 | 43 | 1010.4 |
| 20260901155005 | 30 | 352 | 11.3 | 16.1 | 0.00 | 0.00 | 0.00 | 44 | 1010.4 |
| 20260901154005 | 30 | 19 | 8.0 | 14.5 | 0.00 | 0.00 | 0.00 | 43 | 1010.4 |
| 20260901153005 | 30 | 4 | 8.0 | 16.1 | 0.00 | 0.00 | 0.00 | 44 | 1010.5 |
| 20260901152005 | 30 | 19 | 8.0 | 14.5 | 0.00 | 0.00 | 0.00 | 44 | 1010.5 |
| 20260901151005 | 30 | 67 | 1.6 | 16.1 | 0.00 | 0.00 | 0.00 | 43 | 1010.5 |
| 20260901150005 | 30 | 15 | 9.7 | 19.3 | 0.00 | 0.00 | 0.00 | 44 | 1010.6 |
| 20260901145005 | 30 | 39 | 0.0 | 16.1 | 0.00 | 0.00 | 0.00 | 43 | 1010.5 |
| 20260901144004 | 30 | 41 | 4.8 | 19.3 | 0.00 | 0.00 | 0.00 | 45 | 1010.5 |
| 20260901142005 | 29 | 29 | 14.5 | 19.3 | 0.00 | 0.00 | 0.00 | 45 | 1010.7 |
| 20260901141005 | 30 | 45 | 9.7 | 16.1 | 0.00 | 0.00 | 0.00 | 46 | 1010.8 |
| 20260901140005 | 28 | 347 | 16.1 | 20.9 | 0.00 | 0.00 | 0.00 | 46 | 1011.0 |
| 20260901135005 | 29 | 359 | 12.9 | 16.1 | 0.00 | 0.00 | 0.00 | 45 | 1011.0 |
| 20260901134005 | 29 | 22 | 14.5 | 19.3 | 0.00 | 0.00 | 0.00 | 46 | 1011.0 |
| 20260901133005 | 28 | 41 | 14.5 | 19.3 | 0.00 | 0.00 | 0.00 | 46 | 1011.1 |
| 20260901130005 | 29 | 46 | 12.9 | 19.3 | 0.00 | 0.00 | 0.00 | 46 | 1011.3 |
| 20260901125004 | 29 | 43 | 12.9 | 19.3 | 0.00 | 0.00 | 0.00 | 46 | 1011.3 |
| 20260901124004 | 29 | 349 | 11.3 | 16.1 | 0.00 | 0.00 | 0.00 | 45 | 1011.3 |
| 20260901123004 | 29 | 56 | 8.0 | 19.3 | 0.00 | 0.00 | 0.00 | 46 | 1011.3 |
| 20260901122005 | 28 | 0 | 3.2 | 19.3 | 0.00 | 0.00 | 0.00 | 47 | 1011.6 |
| 20260901121005 | 28 | 270 | 12.9 | 19.3 | 0.00 | 0.00 | 0.00 | 48 | 1011.6 |
| 20260901120004 | 28 | 303 | 9.7 | 14.5 | 0.00 | 0.00 | 0.00 | 48 | 1011.7 |
| 20260901115005 | 28 | 60 | 9.7 | 22.5 | 0.00 | 0.00 | 0.00 | 50 | 1011.8 |
| 20260901112005 | 26 | 353 | 12.9 | 16.1 | 0.00 | 0.00 | 0.00 | 55 | 1012.0 |
| 20260901111005 | 27 | 10 | 12.9 | 19.3 | 0.00 | 0.00 | 0.00 | 55 | 1012.2 |
| 20260901110006 | 27 | 6 | 12.9 | 16.1 | 0.00 | 0.00 | 0.00 | 51 | 1012.3 |
| 20260901105005 | 27 | 328 | 0.0 | 3.2 | 0.00 | 0.00 | 0.00 | 52 | 1012.3 |
| 20260901104005 | 26 | 304 | 0.0 | 8.0 | 0.00 | 0.00 | 0.00 | 55 | 1012.3 |
| 20260901103005 | 27 | 338 | 8.0 | 11.3 | 0.00 | 0.00 | 0.00 | 53 | 1012.3 |
| 20260901102005 | 27 | 338 | 0.0 | 0.0 | 0.00 | 0.00 | 0.00 | 53 | 1012.5 |
| 20260901101005 | 26 | 238 | 0.0 | 14.5 | 0.00 | 0.00 | 0.00 | 55 | 1012.5 |
| 20260901100004 | 27 | 286 | 3.2 | 14.5 | 0.00 | 0.00 | 0.00 | 54 | 1012.4 |
| 20260901095005 | 25 | 328 | 8.0 | 16.1 | 0.00 | 0.00 | 0.00 | 62 | 1012.5 |
| 20260901094006 | 24 | 22 | 11.3 | 16.1 | 0.00 | 0.00 | 0.00 | 66 | 1012.5 |
| 20260901093004 | 23 | 11 | 11.3 | 16.1 | 0.00 | 0.00 | 0.00 | 70 | 1012.4 |
| 20260901092005 | 22 | 26 | 12.9 | 16.1 | 0.00 | 0.00 | 0.00 | 75 | 1012.4 |
| 20260901091004 | 22 | 18 | 3.2 | 11.3 | 0.00 | 0.00 | 0.00 | 74 | 1012.4 |
| 20260901090004 | 22 | 332 | 8.0 | 11.3 | 0.00 | 0.00 | 0.00 | 76 | 1012.1 |
| 20260901085004 | 21 | 264 | 0.0 | 8.0 | 0.00 | 0.00 | 0.00 | 77 | 1012.2 |
| 20260901084004 | 21 | 298 | 1.6 | 14.5 | 0.00 | 0.00 | 0.00 | 77 | 1012.2 |
| 20260901083004 | 21 | 299 | 8.0 | 14.5 | 0.00 | 0.00 | 0.00 | 76 | 1012.1 |
| 20260901082005 | 23 | 342 | 9.7 | 16.1 | 0.00 | 0.00 | 0.00 | 70 | 1012.0 |
| 20260901081005 | 22 | 86 | 8.0 | 19.3 | 0.00 | 0.00 | 0.00 | 74 | 1012.1 |
| 20260901080005 | 22 | 40 | 11.3 | 16.1 | 0.00 | 0.00 | 0.00 | 75 | 1012.0 |
| 20260901075005 | 21 | 6 | 11.3 | 19.3 | 0.00 | 0.00 | 0.00 | 79 | 1011.9 |
| 20260901074005 | 21 | 8 | 11.3 | 12.9 | 0.00 | 0.00 | 0.00 | 82 | 1011.9 |
| 20260901073005 | 20 | 359 | 8.0 | 12.9 | 0.00 | 0.00 | 0.00 | 85 | 1011.9 |
| 20260901070006 | 18 | 51 | 4.8 | 9.7 | 0.00 | 0.00 | 0.00 | 92 | 1011.7 |
| 20260901065005 | 17 | 28 | 8.0 | 9.7 | 0.00 | 0.00 | 0.00 | 98 | 1011.6 |
| 20260901063006 | 16 | 64 | 0.0 | 0.0 | 0.00 | 0.00 | 0.00 | 99 | 1011.5 |
| 20260901062005 | 15 | 180 | 0.0 | 0.0 | 0.00 | 0.00 | 0.00 | 99 | 1011.5 |
| 20260901061007 | 15 | 249 | 0.0 | 0.0 | 0.00 | 0.00 | 0.00 | 99 | 1011.4 |
| 20260901060006 | 15 | 225 | 0.0 | 0.0 | 0.00 | 0.00 | 0.00 | 99 | 1011.4 |
| 20260901055009 | 15 | 202 | 0.0 | 0.0 | 0.00 | 0.00 | 0.00 | 99 | 1011.3 |
| 20260901054006 | 15 | 112 | 0.0 | 0.0 | 0.00 | 0.00 | 0.00 | 99 | 1011.3 |
| 20260901052006 | 15 | 184 | 0.0 | 0.0 | 0.00 | 0.00 | 0.00 | 99 | 1011.1 |
| 20260901051006 | 15 | 221 | 0.0 | 0.0 | 0.00 | 0.00 | 0.00 | 99 | 1011.2 |
| 20260901050005 | 15 | 217 | 0.0 | 0.0 | 0.00 | 0.00 | 0.00 | 99 | 1011.2 |
| 20260901044005 | 16 | 202 | 0.0 | 0.0 | 0.00 | 0.00 | 0.00 | 99 | 1011.1 |
| 20260901043005 | 16 | 34 | 0.0 | 0.0 | 0.00 | 0.00 | 0.00 | 99 | 1011.2 |
| 20260901042006 | 16 | 106 | 0.0 | 0.0 | 0.00 | 0.00 | 0.00 | 99 | 1011.2 |
| 20260901041006 | 16 | 74 | 0.0 | 0.0 | 0.00 | 0.00 | 0.00 | 98 | 1011.3 |
| 20260901040005 | 16 | 86 | 0.0 | 0.0 | 0.00 | 0.00 | 0.00 | 97 | 1011.4 |
| 20260901035006 | 16 | 338 | 0.0 | 0.0 | 0.00 | 0.00 | 0.00 | 97 | 1011.3 |
| 20260901034006 | 16 | 6 | 0.0 | 0.0 | 0.00 | 0.00 | 0.00 | 96 | 1011.3 |
| 20260901033005 | 17 | 22 | 6.4 | 11.3 | 0.00 | 0.00 | 0.00 | 96 | 1011.3 |
| 20260901032006 | 17 | 35 | 6.4 | 11.3 | 0.00 | 0.00 | 0.00 | 96 | 1011.3 |
| 20260901031006 | 17 | 45 | 1.6 | 8.0 | 0.00 | 0.00 | 0.00 | 95 | 1011.3 |
| 20260901030006 | 17 | 67 | 0.0 | 3.2 | 0.00 | 0.00 | 0.00 | 94 | 1011.5 |
| 20260901025005 | 17 | 46 | 0.0 | 0.0 | 0.00 | 0.00 | 0.00 | 94 | 1011.5 |
| 20260901024006 | 17 | 81 | 0.0 | 1.6 | 0.00 | 0.00 | 0.00 | 95 | 1011.5 |
| 20260901023005 | 16 | 68 | 0.0 | 0.0 | 0.00 | 0.00 | 0.00 | 92 | 1011.6 |
| 20260901022005 | 16 | 166 | 0.0 | 0.0 | 0.00 | 0.00 | 0.00 | 92 | 1011.8 |
| 20260901021005 | 17 | 225 | 0.0 | 0.0 | 0.00 | 0.00 | 0.00 | 91 | 1011.8 |
| 20260901020005 | 17 | 270 | 0.0 | 9.7 | 0.00 | 0.00 | 0.00 | 90 | 1011.8 |
| 20260901015005 | 18 | 353 | 8.0 | 14.5 | 0.00 | 0.00 | 0.00 | 89 | 1011.8 |
| 20260901014005 | 18 | 22 | 14.5 | 16.1 | 0.00 | 0.00 | 0.00 | 88 | 1011.8 |
| 20260901013007 | 18 | 31 | 11.3 | 19.3 | 0.00 | 0.00 | 0.00 | 89 | 1011.8 |
| 20260901012005 | 18 | 22 | 11.3 | 14.5 | 0.00 | 0.00 | 0.00 | 90 | 1011.9 |
| 20260901011006 | 18 | 21 | 11.3 | 14.5 | 0.00 | 0.00 | 0.00 | 89 | 1012.1 |
| 20260901005005 | 18 | 23 | 9.7 | 16.1 | 0.00 | 0.00 | 0.00 | 89 | 1012.4 |
| 20260901004005 | 18 | 49 | 9.7 | 16.1 | 0.00 | 0.00 | 0.00 | 89 | 1012.4 |
| 20260901003005 | 18 | 7 | 11.3 | 16.1 | 0.00 | 0.00 | 0.00 | 89 | 1012.4 |